Flag for Germany Weather past 2 weeks in Königs Wusterhausen, Brandenburg, Germany

Now
52 °F

Light rain. Passing clouds.


Feels Like: 49 °F
Forecast: 40 / 51 °F
Wind: 7 mph from West

Location: Berlin-Schoenefeld

Current Time: Oct 21, 2014 at 5:15:06 AM

Latest Report: Oct 21, 2014 at 4:50 AM


Visibility: N/A

Pressure: 29.83 "Hg

Humidity: 100%

Dew point: 52 °F

Location of Königs WusterhausenLocation

Historic Weather in Königs Wusterhausen — Graph

°F

Königs Wusterhausen temperature yesterday

Maximum temperature yesterday: 61 °F (at 1:20 PM)
Minimum temperature yesterday: 52 °F (at 9:20 PM)
Average temperature yesterday: 57 °F

Past Weeks' High & Low Weather Summary

 TemperatureHumidityPressure
High72 °F (Oct 19, 3:20 PM)100% (Oct 10, 6:50 AM)30.24 "Hg (Oct 10, 6:50 AM)
Low46 °F (Oct 16, 7:50 AM)49% (Oct 6, 2:20 PM)29.68 "Hg (Oct 9, 5:50 AM)
Average57 °F86%29.88 "Hg
* Reported Oct 6 4:20 AM — Oct 21 4:20 AM, Königs Wusterhausen, Weather by CustomWeather, © 2014

Note: Actual official high and low records may vary slightly from our data, if they occured in-between our weather recording intervals... More about our weather records

Advertising

Königs Wusterhausen weather history for previous 24 hours

 ConditionsComfort  
Time TempWeatherWind HumidityBarometerVisibility
4:20 AM
Oct 21
52 °FLight rain. Passing clouds.8 mph100%29.83 "HgN/A
3:50 AM52 °FClear.7 mph100%29.83 "Hg10 mi
3:20 AM52 °FLight rain. Partly cloudy.6 mph100%29.86 "HgN/A
2:50 AM52 °FLight rain. Passing clouds.7 mph100%29.86 "HgN/A
2:20 AM52 °FLight rain. Passing clouds.9 mph100%29.86 "HgN/A
1:50 AM52 °FLight rain. Passing clouds.7 mph100%29.86 "HgN/A
1:20 AM54 °FLight rain. Partly cloudy.8 mph94%29.86 "HgN/A
12:50 AM54 °FLight rain. Passing clouds.8 mph94%29.86 "HgN/A
12:20 AM54 °FPassing clouds.8 mph94%29.86 "HgN/A
11:50 PM
Oct 20
54 °FClear.7 mph94%29.86 "Hg10 mi
11:20 PM54 °FPartly cloudy.8 mph94%29.89 "HgN/A
10:50 PM54 °FPartly cloudy.6 mph94%29.89 "HgN/A
10:20 PM52 °FPartly cloudy.8 mph94%29.89 "HgN/A
9:50 PM52 °FClear.7 mph94%29.89 "Hg10 mi
9:20 PM52 °FClear.7 mph94%29.89 "Hg10 mi
8:50 PM55 °FPassing clouds.10 mph88%29.89 "HgN/A
8:20 PM55 °FPassing clouds.10 mph88%29.89 "HgN/A
7:50 PM55 °FPassing clouds.12 mph88%29.89 "HgN/A
7:20 PM55 °FPassing clouds.14 mph88%29.89 "HgN/A
6:50 PM57 °FPartly sunny.13 mph82%29.89 "HgN/A
6:20 PM57 °FPartly sunny.14 mph82%29.89 "HgN/A
5:50 PM57 °FScattered clouds.15 mph82%29.89 "HgN/A
5:20 PM59 °FScattered clouds.15 mph77%29.89 "HgN/A
4:50 PM59 °FScattered clouds.20 mph77%29.89 "HgN/A
4:20 PM59 °FScattered clouds.21 mph77%29.89 "HgN/A
3:50 PM61 °FScattered clouds.18 mph72%29.89 "HgN/A
3:20 PM61 °FScattered showers. Broken clouds.17 mph72%29.89 "HgN/A
2:50 PM61 °FPartly sunny.16 mph72%29.89 "HgN/A
2:20 PM61 °FPartly sunny.20 mph72%29.89 "HgN/A
1:50 PM61 °FPartly sunny.18 mph72%29.89 "HgN/A
1:20 PM61 °FPartly sunny.15 mph72%29.89 "HgN/A
12:50 PM59 °FPartly sunny.17 mph77%29.92 "HgN/A
12:20 PM59 °FPartly sunny.21 mph77%29.92 "HgN/A
11:50 AM59 °FBroken clouds.20 mph77%29.92 "HgN/A
11:20 AM57 °FPartly sunny.17 mph82%29.92 "HgN/A
10:50 AM57 °FPartly sunny.18 mph82%29.89 "HgN/A
10:20 AM57 °FPartly sunny.20 mph82%29.89 "HgN/A
9:50 AM57 °FBroken clouds.17 mph82%29.89 "HgN/A
9:20 AM55 °FPartly sunny.14 mph88%29.89 "HgN/A
8:50 AM55 °FBroken clouds.14 mph88%29.89 "HgN/A
8:20 AM55 °FPartly cloudy.13 mph88%29.89 "HgN/A
7:50 AM54 °FPassing clouds.14 mph94%29.89 "HgN/A
7:20 AM54 °FPassing clouds.13 mph94%29.89 "HgN/A
6:50 AM54 °FPassing clouds.12 mph94%29.89 "HgN/A
5:20 AM55 °FPassing clouds.10 mph88%29.89 "HgN/A
Weather by CustomWeather, © 2014

See weather overviewHow to use our weather pages